SCP
0 0 0 0 0 0 0 0 0 0 0 0 0 0 0 0 0 0 0 0 0 0 0 0 0 0 0 0 0 0 0 0 0 0 0 0 0 0
0 0 0 0 0 0 0 0 0 0 0 0 0 0 0 0 0 0 0 0 0 0 0 0 0 0 0 0 0 0 0 0 0 0 0 0 0 0
0 0 0 0 0 0 0 0 0 0 0 0 0 0 0 0 0 0 0 0 0 0 0 0 0 0 0 0 0 0 0 0 0 0 0 0 0 0
0 0 0 0 0 0 0 0 0 0 0 0 0 0 0 0 0 0 0 0 0 0 0 0 0 0 0 0 0 0 0 0 0 0 0 0 0 0
0 0 0 0 0 0 0 0 0 0 0 0 0 0 0 0 0 0 0 0 0 0 0 0 0 0 0 0 0 0 0 0 0 0 0 0 0 0
0 0 0 0 0 0 0 0 0 0 0 0 0 0 0 0 0 0 0 0 0 0 0 0 0 0 0 0 0 0 0 0 0 0 0 0 0 0
0 0 0 0 0 0 0 0 0 0 0 0 0 0 0 0 0 0 0 0 0 0 0 0 0 0 0 0 0 0 0 0 0 0 0 0 0 0
0 0 0 0 0 0 0 0 0 0 0 0 0 0 0 0 0 0 0 0 0 0 0 0 0 0 0 0 0 0 0 0 0 0 0 0 0 0
0 0 0 0 0 0 0 0 0 0 0 0 0 0 0 0 0 0 0 0 0 0 0 0 0 0 0 0 0 0 0 0 0 0 0 0 0 0
0 0 0 0 0 0 0 0 0 0 0 0 0 0 0 0 0 0 0 0 0 0 0 0 0 0 0 0 0 0 0 0 0 0 0 0 0 0
0 0 0 0 0 0 0 0 0 0 0 0 0 0 0 0 0 0 0 0 0 0 0 0 0 0 0 0 0 0 0 0 0 0 0 0 0 0
0 0 0 0 0 0 0 0 0 0 0 0 0 0 0 0 0 0 0 0 0 0 0 0 0 0 0 0 0 0 0 0 0 0 0 0 0 0
0 0 0 0 0 0 0 0 0 0 0 0 0 0 0 0 0 0 0 0 0 0 0 0 0 0 0 0 0 0 0 0 0 0 0 0 0 0
0 0 0 0 0 0 0 0 0 0 0 0 0 0 0 0 0 0 0 0 0 0 0 0 0 0 0 0 0 0 0 0 0 0 0 0 0 0
0 0 0 0 0 0 0 0 0 0 0 0 0 0 0 0 0 0 0 0 0 0 0 0 0 0 0 0 0 0 0 0 0 0 0 0 0 0
0 0 0 0 0 0 0 0 0 0 0 0 0 0 0 0 0 0 0 0 0 0 0 0 0 0 0 0 0 0 0 0 0 0 0 0 0 0
0 0 0 0 0 0 0 0 0 0 0 0 0 0 0 0 0 0 0 0 0 0 0 0 0 0 0 0 0 0 0 0 0 0 0 0 0 0
0 0 0 0 0 0 0 0 0 0 0 0 0 0 0 0 0 0 0 0 0 0 0 0 0 0 0 0 0 0 0 0 0 0 0 0 0 0
0 0 0 0 0 0 0 0 0 0 0 0 0 0 0 0 0 0 0 0 0 0 0 0 0 0 0 0 0 0 0 0 0 0 0 0 0 0
0 0 0 0 0 0 0 0 0 0 0 0 0 0 0 0 0 0 0 0 0 0 0 0 0 0 0 0 0 0 0 0 0 0 0 0 0 0
0 0 0 0 0 0 0 0 0 0 0 0 0 0 0 0 0 0 0 0 0 0 0 0 0 0 0 0 0 0 0 0 0 0 0 0 0 0
0 0 0 0 0 0 0 0 0 0 0 0 0 0 0 0 0 0 0 0 0 0 0 0 0 0 0 0 0 0 0 0 0 0 0 0 0 0
0 0 0 0 0 0 0 0 0 0 0 0 0 0 0 0 0 0 0 0 0 0 0 0 0 0 0 0 0 0 0 0 0 0 0 0 0 0
Wind_Speed
4 4 4 3 3 3 3 3 4 5 5 4 3 2 3 3 4 5 6 8 10 11 12 12 13 13 14 14 15 15 15 16 16 16 16 16 17 17
3 4 4 3 3 3 3 3 4 5 5 4 4 3 3 4 5 6 7 9 10 11 12 13 13 14 15 15 15 16 16 16 16 16 16 17 17 17
4 4 5 4 3 3 3 3 4 4 6 5 4 4 5 5 5 5 6 7 6 10 12 13 13 14 15 15 15 16 16 16 16 17 17 17 18 18
5 5 5 3 4 3 3 4 4 4 5 7 5 5 6 6 6 7 6 6 7 10 12 13 13 14 15 15 15 15 15 16 16 17 17 18 18 18
5 5 5 4 5 4 4 4 3 4 4 5 6 5 5 5 6 7 7 7 7 8 11 12 13 15 15 15 15 15 15 15 16 17 17 17 18 18
4 4 4 5 5 4 4 4 4 4 4 5 5 5 5 5 5 6 6 6 7 7 8 9 12 14 15 16 15 15 16 16 16 17 17 17 18 18
3 3 4 4 4 4 4 4 4 4 4 5 5 5 5 5 5 5 7 7 8 5 7 7 8 8 9 11 13 15 16 17 17 17 18 18 18 19
4 3 3 3 3 5 6 5 5 5 5 5 5 6 7 6 6 6 7 7 7 4 6 8 7 8 7 7 12 15 16 17 17 18 18 19 19 19
4 3 3 2 3 4 5 6 6 7 7 7 7 8 8 7 7 8 8 8 9 7 7 9 7 9 7 8 14 16 16 16 17 17 18 18 19 19
3 4 4 4 4 4 4 5 5 5 6 7 7 8 7 7 7 8 9 9 10 6 5 8 7 8 8 8 12 14 15 16 16 17 17 18 18 18
3 3 4 4 4 4 4 5 6 5 5 7 8 9 9 9 7 5 6 6 8 6 3 6 6 8 8 8 8 12 13 15 16 17 17 17 18 17
3 3 4 5 5 5 5 5 6 6 5 5 6 7 7 7 8 6 6 6 6 6 2 4 5 6 7 5 5 6 8 12 16 16 17 16 16 11
3 3 3 5 6 5 5 5 7 6 5 5 5 5 5 5 5 5 5 6 7 7 4 4 5 5 6 7 7 7 7 7 8 10 13 15 16 13
4 3 3 5 5 6 5 6 7 5 4 4 5 5 5 5 5 6 7 7 8 10 8 7 6 7 8 9 8 7 7 7 8 8 8 12 13 14
3 4 5 5 5 5 5 5 4 3 4 4 5 5 5 5 5 5 6 7 8 9 8 9 8 8 8 9 9 9 9 8 7 7 7 7 7 7
3 3 4 5 4 4 3 3 3 3 4 5 5 5 5 5 5 5 5 5 6 6 6 7 8 9 9 10 10 10 9 8 7 8 8 9 8 8
1 2 2 2 3 3 3 3 3 3 4 4 5 5 5 5 5 4 4 5 6 7 6 5 6 7 10 10 10 10 9 9 8 8 8 10 9 8
1 2 3 3 3 3 3 3 3 4 4 4 5 5 5 5 6 5 5 5 7 7 7 6 5 6 6 6 10 10 9 8 8 8 8 9 10 8
2 3 3 3 3 3 3 4 4 4 4 4 5 5 5 5 5 5 5 6 7 7 7 5 5 5 7 9 7 7 8 8 8 8 8 8 10 10
3 3 4 3 3 4 4 4 4 4 4 5 5 5 5 5 6 6 6 7 7 7 7 6 5 6 7 9 9 8 10 9 8 9 9 9 10 13
3 4 4 4 4 4 4 4 5 5 5 5 5 5 5 5 6 6 6 8 8 7 8 8 6 7 7 6 8 9 8 9 11 10 10 10 10 9
4 4 4 4 4 4 4 4 4 5 5 5 5 6 5 5 6 7 7 7 7 8 9 8 6 5 5 7 10 11 11 10 11 15 15 14 9 8
4 4 4 4 4 4 4 5 6 5 5 5 5 6 6 6 6 6 7 7 7 8 8 8 6 5 6 7 9 10 12 12 9 9 9 12 16 19
Wind_Direction
225 224 223 224 230 234 233 237 253 269 276 270 274 274 283 285 295 290 289 295 292 293 295 296 296 296 296 296 295 295 295 295 295 296 297 297 297 296
229 225 223 222 222 226 227 237 248 257 270 286 283 297 294 288 295 293 291 297 290 294 294 293 294 293 293 293 292 293 293 293 293 293 294 295 295 295
234 230 228 224 224 227 228 236 246 249 262 277 280 288 289 292 297 292 289 290 290 292 292 292 293 292 292 291 291 291 291 291 292 292 292 292 293 293
233 232 233 226 229 233 232 239 244 246 256 272 281 284 285 289 294 291 289 288 287 293 291 290 292 294 293 291 290 289 288 288 289 290 290 290 291 292
236 232 231 226 232 236 241 245 249 253 256 265 276 282 286 291 294 290 288 288 286 289 287 287 289 291 290 288 288 290 289 288 289 289 289 289 289 290
242 237 236 233 236 240 242 248 253 255 257 263 271 280 284 291 289 291 293 292 291 289 285 288 289 287 285 285 286 288 288 287 288 289 289 289 288 287
245 240 242 245 250 250 250 251 250 253 258 262 269 279 283 290 288 293 292 299 293 283 293 289 287 283 283 282 282 284 286 286 287 288 289 288 287 286
246 249 249 245 249 252 256 259 257 249 253 258 265 272 280 286 291 290 293 297 294 295 295 288 283 281 282 280 286 287 285 286 287 289 289 288 288 287
247 250 250 254 254 255 254 253 253 254 252 257 264 269 278 284 287 286 284 284 284 295 295 285 282 281 283 282 286 286 287 288 290 292 292 292 292 288
252 252 254 260 257 258 264 265 263 259 260 257 262 271 278 285 282 282 286 285 283 276 273 280 287 287 289 283 280 281 287 291 293 294 294 294 296 294
256 257 255 261 271 266 265 268 271 270 266 265 273 278 283 287 291 288 286 287 287 284 266 274 288 298 289 276 278 284 288 292 294 295 296 296 297 296
257 258 258 265 280 272 267 269 271 278 286 283 277 278 277 277 275 267 270 274 283 284 261 279 287 306 296 278 284 291 289 289 291 293 295 295 298 297
254 259 264 269 276 275 273 269 276 290 286 281 281 280 278 274 272 269 265 262 267 267 272 281 280 283 278 290 292 286 285 290 293 291 290 291 294 294
253 262 268 270 273 275 272 278 288 289 279 277 276 277 280 281 282 278 272 265 263 267 271 268 267 274 281 285 286 292 293 291 289 288 289 289 290 289
257 267 275 270 275 273 277 284 284 273 269 270 273 278 284 286 287 285 281 276 273 267 264 259 260 269 269 272 280 288 296 294 286 286 290 289 288 287
259 265 268 268 273 281 286 280 269 270 270 270 278 285 286 284 281 285 286 291 285 281 268 262 264 267 269 271 274 280 283 284 290 290 291 286 282 276
263 261 262 266 269 271 272 270 268 266 264 269 277 284 288 290 289 289 282 283 277 286 295 292 280 275 268 268 271 272 280 285 288 294 295 290 284 278
226 246 250 258 265 269 271 276 268 264 268 271 273 277 282 287 292 295 290 282 281 284 289 297 305 304 291 263 245 265 275 283 290 289 286 287 287 284
224 249 254 256 264 270 273 278 281 280 276 268 268 272 277 281 284 286 287 287 284 284 287 290 289 288 293 296 283 252 277 290 294 290 286 283 285 289
239 248 254 258 261 265 267 270 275 280 278 277 274 274 274 276 278 280 281 282 286 289 288 284 276 272 274 286 293 288 275 277 284 287 290 290 285 286
242 249 255 258 260 262 266 269 270 271 273 276 275 271 269 273 276 279 280 281 279 282 285 284 285 286 281 280 278 282 284 277 279 280 286 290 292 289
245 249 254 256 259 259 260 262 266 267 268 267 271 271 266 264 269 273 276 280 280 279 283 287 290 283 271 269 278 287 294 296 288 283 274 268 277 283
245 249 251 252 252 254 256 256 258 261 262 263 266 270 268 266 267 270 273 274 278 283 289 293 293 284 276 275 280 287 293 299 300 299 288 277 274 277